Location: Bandys
(35.4750°N, 81.0830°W)
Time: 00:27:47
(UTC-04:00)

Daily predictions for brighter satellites

Satellite Brightness Start Highest point End
(mag) Time Altitude Azimuth Time Altitude Azimuth Time Altitude Azimuth
Milstar 3 4.1 04:25:46 29° SE 04:25:46 29° SE 04:29:08 10° ESE
ADEOS II 4.2 04:44:16 10° NNE 04:45:47 20° NNE 04:45:47 20° NNE
Okean O Rocket 3.6 04:54:38 10° NNE 04:56:59 25° ENE 04:56:59 25° ENE
Cosmos 2219 4.2 05:00:19 31° NNE 05:02:25 43° ENE 05:07:43 10° SE
NOSS 3-1 (C) 4.2 05:05:14 41° N 05:05:14 41° N 05:09:23 10° NNE
CZ-4C R/B 3.5 05:12:18 42° SSW 05:12:18 42° SSW 05:17:42 10° S
NOSS 3-1 (A) 3.5 05:11:55 62° NNE 05:11:55 62° NNE 05:17:11 10° NNE
USA 267 3.4 05:11:28 10° SE 05:17:57 69° NE 05:20:22 41° NNW
CZ-4B DEB 4.4 05:23:33 10° NNE 05:29:03 71° ESE 05:34:34 10° S
Meteor 1-16 Rocket 4.3 05:25:34 10° N 05:31:20 77° E 05:37:13 10° SSE
PAYLOAD B 4.2 05:26:07 10° NNE 05:31:39 79° ESE 05:36:31 14° S
SJ 16-02 2.4 05:36:01 36° N 05:36:01 36° N 05:38:41 10° NNE
Meteor 2-5 Rocket 3.6 05:34:52 43° SSW 05:36:52 76° W 05:42:42 10° N
CZ-4B R/B 3.3 05:31:47 10° NNE 05:37:19 77° ESE 05:42:54 10° S
Cosmos 372 Rocket 4.0 05:45:22 59° WNW 05:45:22 59° WNW 05:50:25 10° N
Cosmos 1809 Rocket 4.3 05:41:47 10° N 05:47:54 77° W 05:54:01 10° S
USA 81 4.0 05:43:22 10° S 05:48:38 89° E 05:53:56 10° N
Cosmos 962 Rocket 4.4 05:46:25 10° NNW 05:52:24 57° W 05:58:20 10° SSW
OAO 2 Rocket 3.7 05:53:05 43° SW 05:53:34 44° SSW 05:58:18 10° SE
ERBS 2.7 05:56:38 57° SSE 05:56:38 57° SSE 05:59:29 10° SE
Tiangong 2 3.6 05:58:34 14° S 05:58:34 14° S 05:59:20 10° SSE
Cosmos 2218 Rocket 4.1 05:52:12 10° N 05:58:29 79° E 06:04:49 10° S
Cosmos 1269 Rocket 3.9 05:55:11 10° NNW 06:00:31 87° WSW 06:05:49 10° SSE
Cosmos 2278 4.0 05:57:02 10° S 06:02:37 69° ESE 06:08:14 10° NNE
Cosmos 1674 3.7 06:04:03 10° SSE 06:07:37 47° E 06:11:13 10° NNE
Meteor 2-21 Rocket 4.3 06:04:33 10° NNW 06:10:34 66° W 06:16:36 10° S
Cosmos 2181 Rocket 4.3 06:08:06 10° SSW 06:13:52 39° WNW 06:19:38 10° N
Cosmos-2242 4.3 06:16:07 23° SW 06:16:07 23° SW 06:18:08 10° SSW
Cosmos 1125 Rocket 4.3 06:14:18 29° WNW 06:14:23 29° WNW 06:18:57 10° N
Cosmos 2227 Rocket 2.6 06:09:19 10° NNW 06:14:58 64° ENE 06:20:34 10° SSE
Cosmos 2341 Rocket 4.5 06:11:55 10° NNW 06:17:39 36° W 06:23:21 10° SSW
CZ-3 Stage 3 3.8 06:18:26 24° WSW 06:21:32 66° S 06:47:03 10° E
Cosmos 1959 Rocket 4.4 06:15:42 10° NNW 06:21:55 67° W 06:28:02 10° S
NOSS 2-3 (D) 3.7 06:18:44 10° SW 06:23:18 81° WNW 06:28:29 10° NNE
SJ-6F 4.4 06:19:45 10° N 06:23:45 57° WNW 06:27:43 10° SSW
Meteor 1-24 Rocket 4.1 06:19:30 10° SSW 06:25:14 46° WNW 06:30:54 10° N
ADEOS II 4.0 06:26:04 10° NW 06:26:43 11° NW 06:26:43 11° NW
DELTA 2 R/B(2) 4.1 06:30:01 35° NNW 06:30:36 47° NNE 06:33:35 10° E
NOAA 6 4.0 06:28:36 10° NNE 06:33:47 90° ESE 06:38:55 10° SSW
IDEFIX/ARIANE 42P 3.5 06:28:49 10° NNE 06:33:55 51° E 06:38:57 10° S
SL-08 R/B 4.5 06:28:07 10° NNW 06:34:15 64° W 06:40:26 10° S
Okean O Rocket 3.0 06:31:41 10° NNW 06:34:26 19° WNW 06:34:26 19° WNW
Cosmos 1656 3.6 06:31:50 10° SSW 06:37:31 70° WNW 06:43:12 10° NNE
Meteor 1-31 Rocket 3.8 06:39:24 10° NNW 06:42:28 24° WNW 06:45:33 10° SW
Cosmos 2084 Rocket 4.3 06:40:46 17° W 06:43:14 29° NW 06:46:51 10° N
ATLAS CENTAUR R/B 4.2 06:43:17 10° NNE 06:44:28 11° NE 06:45:39 10° ENE
Cosmos 2219 4.3 06:42:24 12° NW 06:46:12 22° W 06:50:25 10° SSW
Cosmos 2221 2.5 06:42:16 10° N 06:46:42 89° E 06:51:03 10° S
KORONAS-FOTON 3.7 06:44:22 10° SSW 06:48:06 69° W 06:51:53 10° N
COSMO-SKYMED 1 2.5 06:43:59 10° SSE 06:48:18 87° WSW 06:52:40 10° NNW
ATLAS 2AS CENTAUR R/B 3.1 06:41:53 10° SSW 06:49:29 87° ESE 06:57:39 10° NNE
Cosmos 1818 3.6 06:44:43 10° SSW 06:50:07 89° WNW 06:55:36 10° NNE
OAO 3 Copernicus 4.5 06:45:53 13° WSW 06:50:26 73° SSE 06:55:28 10° E
Cosmos 2297 Rocket 2.2 06:46:28 10° NNW 06:52:07 75° WSW 06:57:43 10° SSE
Cosmos 2251 Rocket 3.7 06:49:35 10° NNW 06:54:59 84° ENE 07:00:21 10° SSE
Okean-O 2.9 06:51:43 10° N 06:55:58 47° WNW 07:00:13 10° SSW
Cosmos 1697 Rocket 2.7 06:50:27 10° SSW 06:56:05 73° WNW 07:01:46 10° NNE
NOSS 2-3 (E) 4.4 06:52:28 10° WSW 06:56:47 38° NW 07:01:42 10° NNE
Cosmos 1908 3.4 06:53:43 10° NNW 06:57:24 45° W 07:01:03 10° SSW
USA 267 4.2 06:55:45 10° S 07:01:11 28° SW 07:06:38 10° WNW
EO 1 Del DPAF 3.7 06:59:05 10° S 07:02:39 38° W 07:06:16 10° NNW
Cosmos 2082 3.7 06:57:27 10° NNW 07:03:01 61° WSW 07:08:32 10° S
Milstar 3 4.2 07:00:00 10° WSW 07:05:32 27° SSW 07:12:30 10° SE
CZ-3 R/B 4.2 06:53:29 10° W 07:10:04 24° SW 07:16:49 10° S
Cosmos 1980 Rocket 2.3 07:05:32 10° SSW 07:11:07 85° ESE 07:16:46 10° NNE
OE (NEXTSAT) 4.4 07:09:06 10° WNW 07:12:42 87° SSW 07:16:16 10° SE
Ariane Rocket 4.4 07:10:29 10° NNE 07:15:22 46° E 07:20:13 10° S
ATLAS 3B R/B 3.8 07:12:46 10° NNW 07:19:04 43° NE 07:25:10 10° ESE
